TimeEDT,TemperatureF,Dew PointF,Humidity,Sea Level PressureIn,VisibilityMPH,Wind Direction,Wind SpeedMPH,Gust SpeedMPH,PrecipitationIn,Events,Conditions,WindDirDegrees,DateUTC
12:53 AM,78.1,75.9,93,30.00,10.0,Calm,Calm,-,N/A,,Unknown,0,2013-09-02 04:53:00
1:53 AM,77.0,75.0,94,29.99,10.0,NW,3.5,-,N/A,,Unknown,310,2013-09-02 05:53:00
2:53 AM,77.0,75.0,94,29.98,10.0,Calm,Calm,-,N/A,,Unknown,0,2013-09-02 06:53:00
3:53 AM,77.0,73.9,90,29.97,10.0,Calm,Calm,-,N/A,,Unknown,0,2013-09-02 07:53:00
4:53 AM,77.0,75.0,94,29.96,9.0,Calm,Calm,-,N/A,,Unknown,0,2013-09-02 08:53:00
5:53 AM,77.0,75.0,94,29.97,9.0,Calm,Calm,-,N/A,,Unknown,0,2013-09-02 09:53:00
6:53 AM,77.0,73.9,90,29.99,10.0,Calm,Calm,-,N/A,,Unknown,0,2013-09-02 10:53:00
7:53 AM,78.1,75.0,90,30.01,10.0,Calm,Calm,-,N/A,,Mostly Cloudy,0,2013-09-02 11:53:00
8:53 AM,82.9,75.9,79,30.02,10.0,Calm,Calm,-,N/A,,Scattered Clouds,0,2013-09-02 12:53:00
9:53 AM,86.0,75.9,72,30.03,10.0,Calm,Calm,-,N/A,,Scattered Clouds,0,2013-09-02 13:53:00
10:53 AM,84.9,75.0,72,30.04,10.0,SE,3.5,-,N/A,,Scattered Clouds,130,2013-09-02 14:53:00
11:53 AM,88.0,75.9,67,30.04,10.0,SE,9.2,-,N/A,,Scattered Clouds,130,2013-09-02 15:53:00
12:53 PM,88.0,75.9,67,30.02,10.0,ESE,9.2,-,N/A,,Scattered Clouds,110,2013-09-02 16:53:00
1:53 PM,86.0,75.9,72,30.01,6.0,East,9.2,-,0.01,Rain,Light Rain,90,2013-09-02 17:53:00
2:24 PM,84.2,75.2,74,30.01,10.0,SE,9.2,-,0.00,Thunderstorm,Thunderstorm,130,2013-09-02 18:24:00
2:53 PM,80.1,71.1,74,30.04,7.0,SW,18.4,24.2,0.00,Thunderstorm,Thunderstorm,230,2013-09-02 18:53:00
3:06 PM,73.4,69.8,88,30.03,1.8,West,12.7,32.2,0.06,Rain-Thunderstorm,Heavy Thunderstorms and Rain,260,2013-09-02 19:06:00
3:22 PM,73.4,69.8,88,30.03,0.8,SW,5.8,-,0.13,Rain-Thunderstorm,Heavy Thunderstorms and Rain,220,2013-09-02 19:22:00
3:30 PM,73.4,71.6,94,30.03,2.0,WSW,3.5,-,0.16,Rain-Thunderstorm,Thunderstorms and Rain,240,2013-09-02 19:30:00
3:35 PM,73.4,71.6,94,30.03,4.0,West,4.6,-,0.18,Rain-Thunderstorm,Light Thunderstorms and Rain,260,2013-09-02 19:35:00
3:53 PM,75.0,72.0,90,30.01,10.0,WNW,8.1,-,0.24,Rain,Light Rain,290,2013-09-02 19:53:00
4:53 PM,77.0,73.9,90,30.01,10.0,NW,5.8,-,0.14,Rain,Light Rain,320,2013-09-02 20:53:00
5:53 PM,79.0,73.9,84,29.99,10.0,NW,5.8,-,N/A,,Overcast,320,2013-09-02 21:53:00
6:53 PM,79.0,73.0,82,29.98,10.0,North,4.6,-,N/A,,Unknown,350,2013-09-02 22:53:00
7:53 PM,78.1,72.0,81,29.97,10.0,Calm,Calm,-,N/A,,Unknown,0,2013-09-02 23:53:00
8:53 PM,78.1,73.0,84,29.99,10.0,Calm,Calm,-,N/A,,Unknown,0,2013-09-03 00:53:00
9:53 PM,77.0,73.0,88,30.01,10.0,Calm,Calm,-,N/A,,Unknown,0,2013-09-03 01:53:00
10:53 PM,75.0,72.0,90,30.01,10.0,NW,3.5,-,N/A,,Unknown,320,2013-09-03 02:53:00
11:53 PM,75.0,73.0,94,30.01,10.0,Calm,Calm,-,N/A,,Unknown,0,2013-09-03 03:53:00